RISAT-2BR2

导读

RISAT-2BR2(后更名为地球观测卫星-01)是印度于2020年11月7日发射的合成孔径雷达成像卫星,隶属于RISAT-2系列,属于印度天基监视系统项目的组成部分。卫星重630千克,搭载直径3.6米雷达天线,运行于近地轨道,最高分辨率达0.35米,性能跻身世界先进水平。作为军民两用卫星,它可定期对印度领土及邻国区域重访成像,既承担边境、海域监视侦察任务,也可用于灾害监测、资源勘测等民用领域。

Basic Information
目录编号:
46905
目录名称:
RISAT-2BR2
国际标识:
2020-081A
轨道中心:
EARTH
卫星名称:
RISAT-2BR2
卫星全名:
--
卫星状态:
在轨 (已飞行2046 天)
发射日期:
2020-11-07 UTC
国别 :
印度 (IN)
星等 :
--
Orbit Information
数据来源 国际轨道数据 AOE轨道数据
星历时间 2026-06-15T05:18:41+0800
8小时前
查看轨道信息
2026-06-15T08:00:00+0800
5小时前
查看轨道信息
半长轴 6940.043km 6940.06km
偏心率 0.001036 0.0010468
轨道倾角 36.898° 36.898°
近地点辐角 144.634° 145.839°
升交点赤经 237.933° 237.270°
平近点角 215.509° 100.820°
近地点 554.716km 554.658km
远地点 569.096km 569.188km
周期 95.897分钟 95.897分钟
每日圈数 15.016185 15.016129
Detailed Information
使用方式:
暂无
2D Orbit Map
3D Orbit Map
Orbit Altitude Analysis Chart
Orbit Inclination Analysis Chart
Orbit Comprehensive Analysis Chart
View Comprehensive Chart